| time (UTC) | temp F | wind direction | speed MPH | gust MPH | rain 1hr in | rain 24hr in | rain mn in | humidity % | barometer mb |
| 20260901004005 | 73 | 205 | 0.0 | 1.0 | 0.00 | 0.35 | 0.29 | 90 | 1016.6 |
| 20260901003005 | 73 | 138 | 1.0 | 1.0 | 0.00 | 0.35 | 0.29 | 89 | 1016.6 |
| 20260901002006 | 73 | 183 | 1.0 | 1.0 | 0.00 | 0.35 | 0.29 | 87 | 1016.4 |
| 20260901001007 | 74 | 115 | 1.0 | 1.0 | 0.00 | 0.35 | 0.29 | 86 | 1016.4 |
| 20260901000002 | 74 | 138 | 0.0 | 1.0 | 0.00 | 0.35 | 0.29 | 85 | 1016.4 |
| 20260831235002 | 75 | 205 | 0.0 | 0.0 | 0.00 | 0.35 | 0.29 | 84 | 1016.4 |
| 20260831234003 | 76 | 138 | 2.0 | 3.0 | 0.00 | 0.35 | 0.29 | 83 | 1016.4 |
| 20260831233004 | 76 | 160 | 3.0 | 3.0 | 0.00 | 0.35 | 0.29 | 82 | 1016.4 |
| 20260831231006 | 76 | 228 | 2.0 | 3.0 | 0.00 | 0.35 | 0.29 | 82 | 1016.9 |
| 20260831230006 | 76 | 228 | 1.0 | 2.0 | 0.00 | 0.35 | 0.29 | 82 | 1016.9 |
| 20260831225007 | 76 | 318 | 1.0 | 1.0 | 0.00 | 0.35 | 0.29 | 82 | 1016.8 |
| 20260831223002 | 76 | 48 | 1.0 | 1.0 | 0.00 | 0.35 | 0.29 | 82 | 1016.6 |
| 20260831222002 | 76 | 160 | 1.0 | 2.0 | 0.00 | 0.35 | 0.29 | 81 | 1016.7 |
| 20260831220003 | 77 | 273 | 0.0 | 1.0 | 0.00 | 0.36 | 0.29 | 80 | 1016.9 |
| 20260831215004 | 77 | 295 | 0.0 | 0.0 | 0.00 | 0.36 | 0.29 | 81 | 1016.9 |
| 20260831214005 | 77 | 228 | 0.0 | 0.0 | 0.00 | 0.36 | 0.29 | 80 | 1016.8 |
| 20260831213006 | 77 | 318 | 1.0 | 2.0 | 0.00 | 0.37 | 0.29 | 79 | 1016.9 |
| 20260831212002 | 77 | 250 | 1.0 | 1.0 | 0.00 | 0.37 | 0.29 | 78 | 1017.0 |
| 20260831211003 | 77 | 273 | 2.0 | 3.0 | 0.00 | 0.37 | 0.29 | 77 | 1017.0 |
| 20260831205003 | 78 | 340 | 1.0 | 3.0 | 0.00 | 0.38 | 0.29 | 76 | 1016.9 |
| 20260831204005 | 78 | 318 | 3.0 | 4.0 | 0.00 | 0.38 | 0.29 | 74 | 1016.9 |
| 20260831202006 | 79 | 273 | 3.0 | 8.0 | 0.00 | 0.38 | 0.29 | 72 | 1017.0 |
| 20260831201006 | 79 | 273 | 5.0 | 10.0 | 0.00 | 0.38 | 0.29 | 71 | 1017.0 |
| 20260831195007 | 79 | 295 | 5.0 | 9.0 | 0.00 | 0.38 | 0.29 | 72 | 1017.0 |
| 20260831194002 | 79 | 250 | 7.0 | 11.0 | 0.00 | 0.38 | 0.29 | 71 | 1017.1 |
| 20260831193003 | 80 | 318 | 5.0 | 10.0 | 0.00 | 0.38 | 0.29 | 69 | 1017.2 |
| 20260831191003 | 81 | 228 | 4.0 | 6.0 | 0.00 | 0.38 | 0.29 | 71 | 1017.3 |
| 20260831190004 | 80 | 250 | 4.0 | 8.0 | 0.00 | 0.38 | 0.29 | 72 | 1017.4 |
| 20260831185005 | 79 | 273 | 2.0 | 5.0 | 0.00 | 0.38 | 0.29 | 71 | 1017.5 |
| 20260831183006 | 79 | 318 | 8.0 | 12.0 | 0.00 | 0.38 | 0.29 | 69 | 1017.6 |
| 20260831182007 | 80 | 273 | 7.0 | 14.0 | 0.00 | 0.38 | 0.29 | 70 | 1017.6 |
| 20260831180002 | 79 | 228 | 2.0 | 5.0 | 0.00 | 0.38 | 0.29 | 72 | 1017.7 |
| 20260831175003 | 78 | 228 | 10.0 | 14.0 | 0.00 | 0.38 | 0.29 | 72 | 1017.8 |
| 20260831174004 | 79 | 273 | 8.0 | 12.0 | 0.00 | 0.38 | 0.29 | 72 | 1017.8 |
| 20260831172005 | 80 | 205 | 7.0 | 11.0 | 0.00 | 0.38 | 0.29 | 73 | 1017.8 |
| 20260831171006 | 79 | 228 | 7.0 | 9.0 | 0.00 | 0.39 | 0.29 | 76 | 1017.9 |
| 20260831170007 | 77 | 228 | 7.0 | 9.0 | 0.00 | 0.39 | 0.29 | 77 | 1018.0 |
| 20260831165007 | 77 | 228 | 5.0 | 6.0 | 0.00 | 0.39 | 0.29 | 79 | 1018.1 |
| 20260831164002 | 76 | 250 | 5.0 | 7.0 | 0.00 | 0.39 | 0.29 | 80 | 1018.2 |
| 20260831163003 | 75 | 228 | 8.0 | 11.0 | 0.00 | 0.39 | 0.29 | 81 | 1018.3 |
| 20260831162004 | 75 | 138 | 2.0 | 3.0 | 0.00 | 0.39 | 0.29 | 83 | 1018.4 |
| 20260831160005 | 73 | 160 | 3.0 | 4.0 | 0.00 | 0.39 | 0.29 | 84 | 1018.6 |
| 20260831155006 | 73 | 93 | 1.0 | 3.0 | 0.00 | 0.39 | 0.29 | 84 | 1018.6 |
| 20260831153006 | 73 | 160 | 1.0 | 3.0 | 0.00 | 0.39 | 0.29 | 87 | 1018.5 |
| 20260831152007 | 72 | 160 | 3.0 | 6.0 | 0.00 | 0.39 | 0.29 | 86 | 1018.6 |
| 20260831151002 | 71 | 205 | 3.0 | 6.0 | 0.00 | 0.39 | 0.29 | 88 | 1018.6 |
| 20260831144002 | 70 | 273 | 0.0 | 1.0 | 0.00 | 0.39 | 0.29 | 92 | 1018.6 |
| 20260831143003 | 70 | 93 | 2.0 | 3.0 | 0.00 | 0.39 | 0.29 | 93 | 1018.3 |
| 20260831142003 | 69 | 138 | 3.0 | 4.0 | 0.00 | 0.39 | 0.29 | 94 | 1018.3 |
| 20260831141004 | 69 | 183 | 5.0 | 7.0 | 0.00 | 0.39 | 0.29 | 95 | 1018.4 |
| 20260831140005 | 68 | 273 | 1.0 | 4.0 | 0.00 | 0.39 | 0.29 | 97 | 1018.5 |
| 20260831135001 | 67 | 205 | 3.0 | 4.0 | 0.00 | 0.39 | 0.29 | 98 | 1018.7 |
| 20260831134002 | 66 | 25 | 1.0 | 1.0 | 0.00 | 0.39 | 0.29 | 99 | 1018.8 |
| 20260831132002 | 65 | 48 | 0.0 | 1.0 | 0.00 | 0.39 | 0.29 | 98 | 1018.8 |
| 20260831131003 | 65 | 340 | 2.0 | 3.0 | 0.00 | 0.39 | 0.29 | 99 | 1018.8 |
| 20260831130004 | 64 | 93 | 1.0 | 2.0 | 0.00 | 0.39 | 0.29 | 98 | 1018.6 |
| 20260831125005 | 64 | 115 | 4.0 | 5.0 | 0.00 | 0.39 | 0.29 | 98 | 1018.5 |
| 20260831124004 | 64 | 70 | 3.0 | 4.0 | 0.00 | 0.39 | 0.29 | 98 | 1018.5 |
| 20260831123005 | 64 | 138 | 3.0 | 5.0 | 0.00 | 0.39 | 0.29 | 98 | 1018.4 |
| 20260831122000 | 64 | 138 | 2.0 | 3.0 | 0.00 | 0.38 | 0.28 | 98 | 1018.5 |
| 20260831121001 | 64 | 93 | 4.0 | 5.0 | 0.00 | 0.38 | 0.28 | 98 | 1018.5 |
| 20260831120001 | 64 | 115 | 3.0 | 4.0 | 0.00 | 0.34 | 0.24 | 98 | 1018.8 |
| 20260831115002 | 64 | 48 | 2.0 | 3.0 | 0.00 | 0.33 | 0.23 | 98 | 1018.9 |
| 20260831114003 | 63 | 48 | 3.0 | 3.0 | 0.00 | 0.33 | 0.23 | 98 | 1018.7 |
| 20260831113004 | 63 | 93 | 2.0 | 4.0 | 0.00 | 0.33 | 0.23 | 98 | 1018.6 |
| 20260831112005 | 63 | 93 | 4.0 | 4.0 | 0.00 | 0.33 | 0.23 | 98 | 1018.6 |
| 20260831111005 | 63 | 70 | 2.0 | 3.0 | 0.00 | 0.33 | 0.23 | 98 | 1018.5 |
| 20260831110020 | 64 | 25 | 0.0 | 1.0 | 0.00 | 0.32 | 0.22 | 98 | 1018.6 |
| 20260831104006 | 64 | 205 | 4.0 | 6.0 | 0.00 | 0.25 | 0.15 | 98 | 1018.6 |
| 20260831102007 | 64 | 183 | 2.0 | 3.0 | 0.00 | 0.23 | 0.13 | 98 | 1018.6 |
| 20260831101002 | 64 | 205 | 0.0 | 0.0 | 0.00 | 0.22 | 0.12 | 98 | 1018.7 |
| 20260831094001 | 64 | 48 | 2.0 | 3.0 | 0.00 | 0.22 | 0.12 | 98 | 1018.5 |
| 20260831092001 | 64 | 228 | 2.0 | 3.0 | 0.00 | 0.21 | 0.11 | 98 | 1018.7 |
| 20260831091002 | 64 | 205 | 1.0 | 2.0 | 0.00 | 0.21 | 0.11 | 98 | 1018.8 |
| 20260831090002 | 64 | 48 | 2.0 | 3.0 | 0.00 | 0.21 | 0.11 | 98 | 1018.6 |
| 20260831085003 | 64 | 160 | 1.0 | 2.0 | 0.00 | 0.21 | 0.11 | 98 | 1018.7 |
| 20260831084004 | 64 | 160 | 2.0 | 3.0 | 0.00 | 0.21 | 0.11 | 98 | 1018.7 |
| 20260831083004 | 64 | 48 | 2.0 | 3.0 | 0.00 | 0.21 | 0.11 | 98 | 1018.8 |
| 20260831082005 | 64 | 273 | 3.0 | 4.0 | 0.00 | 0.21 | 0.11 | 98 | 1018.9 |
| 20260831081006 | 64 | 25 | 3.0 | 3.0 | 0.00 | 0.21 | 0.11 | 98 | 1018.8 |
| 20260831080006 | 64 | 160 | 5.0 | 6.0 | 0.00 | 0.21 | 0.11 | 98 | 1018.9 |
| 20260831075002 | 65 | 160 | 1.0 | 2.0 | 0.00 | 0.20 | 0.10 | 98 | 1019.4 |
| 20260831073003 | 64 | 25 | 0.0 | 1.0 | 0.00 | 0.20 | 0.10 | 98 | 1019.3 |
| 20260831072004 | 64 | 48 | 2.0 | 3.0 | 0.00 | 0.19 | 0.09 | 98 | 1019.4 |
| 20260831071005 | 64 | 93 | 0.0 | 1.0 | 0.00 | 0.18 | 0.08 | 97 | 1019.4 |
| 20260831070006 | 64 | 138 | 3.0 | 3.0 | 0.00 | 0.18 | 0.08 | 97 | 1019.3 |
| 20260831065001 | 65 | 160 | 3.0 | 3.0 | 0.00 | 0.18 | 0.08 | 97 | 1019.4 |
| 20260831063002 | 64 | 93 | 3.0 | 3.0 | 0.00 | 0.18 | 0.08 | 97 | 1019.4 |
| 20260831062003 | 65 | 70 | 1.0 | 2.0 | 0.00 | 0.18 | 0.08 | 97 | 1019.5 |
| 20260831061003 | 64 | 183 | 0.0 | 1.0 | 0.00 | 0.18 | 0.08 | 97 | 1019.6 |
| 20260831055004 | 65 | 205 | 1.0 | 2.0 | 0.00 | 0.17 | 0.07 | 97 | 1019.6 |
| 20260831054005 | 65 | 93 | 0.0 | 1.0 | 0.00 | 0.17 | 0.07 | 97 | 1019.7 |
| 20260831053006 | 65 | 160 | 2.0 | 3.0 | 0.00 | 0.17 | 0.07 | 97 | 1019.6 |
| 20260831052001 | 65 | 205 | 1.0 | 1.0 | 0.00 | 0.17 | 0.07 | 97 | 1019.8 |
| 20260831045006 | 65 | 160 | 3.0 | 4.0 | 0.00 | 0.15 | 0.05 | 96 | 1019.6 |
| 20260831044001 | 65 | 160 | 3.0 | 4.0 | 0.00 | 0.15 | 0.05 | 96 | 1019.6 |
| 20260831043001 | 65 | 228 | 1.0 | 2.0 | 0.00 | 0.14 | 0.04 | 96 | 1019.7 |
| 20260831042002 | 65 | 340 | 0.0 | 1.0 | 0.00 | 0.13 | 0.03 | 96 | 1019.7 |
| 20260831041002 | 65 | 138 | 3.0 | 4.0 | 0.00 | 0.12 | 0.02 | 96 | 1019.5 |
| 20260831040003 | 65 | 183 | 4.0 | 5.0 | 0.00 | 0.10 | 0.00 | 96 | 1019.6 |
| 20260831035003 | 65 | 205 | 4.0 | 6.0 | 0.00 | 0.08 | 0.08 | 96 | 1019.9 |
| 20260831034003 | 65 | 205 | 3.0 | 4.0 | 0.00 | 0.06 | 0.06 | 96 | 1020.0 |
| 20260831033004 | 65 | 205 | 2.0 | 3.0 | 0.00 | 0.06 | 0.06 | 96 | 1019.9 |
| 20260831032005 | 65 | 228 | 2.0 | 2.0 | 0.00 | 0.06 | 0.06 | 96 | 1019.9 |
| 20260831031005 | 65 | 160 | 2.0 | 3.0 | 0.00 | 0.06 | 0.06 | 96 | 1019.8 |
| 20260831030006 | 65 | 183 | 1.0 | 1.0 | 0.00 | 0.05 | 0.05 | 96 | 1019.9 |
| 20260831025001 | 65 | 205 | 1.0 | 1.0 | 0.00 | 0.05 | 0.05 | 96 | 1020.0 |
| 20260831023002 | 66 | 228 | 2.0 | 3.0 | 0.00 | 0.05 | 0.05 | 96 | 1020.0 |
| 20260831021002 | 66 | 48 | 1.0 | 1.0 | 0.00 | 0.05 | 0.05 | 95 | 1020.0 |
| 20260831015003 | 66 | 228 | 0.0 | 0.0 | 0.00 | 0.05 | 0.05 | 95 | 1020.1 |
| 20260831014004 | 66 | 138 | 0.0 | 1.0 | 0.00 | 0.05 | 0.05 | 95 | 1020.1 |
| 20260831013005 | 66 | 250 | 0.0 | 1.0 | 0.00 | 0.04 | 0.04 | 94 | 1020.3 |
| 20260831012008 | 66 | 250 | 0.0 | 0.0 | 0.00 | 0.04 | 0.04 | 94 | 1020.1 |
| 20260831011002 | 66 | 250 | 0.0 | 0.0 | 0.00 | 0.04 | 0.04 | 94 | 1020.0 |
| 20260831010002 | 66 | 205 | 0.0 | 0.0 | 0.00 | 0.04 | 0.04 | 94 | 1019.8 |